When you browse on this site, cookies collect data to enhance your experience and personalize the content and advertising you see.
Visit our Privacy Policy to learn more. By continuing to use the site, you agree to this use of cookies and data.
  • In Czech Republic
  • List of Countries
  • For 7 days
  • Water Temperature
  • Satellite Maps
  • Weather Map
  • Weather Widgets
  • user-avatar
    Login

    Hourly Weather Albacete

    Today, 17 January, Thursday

    Time Temperature Precipitation Wind Pressure Humidity
    00:00 +3°C° 0 mm 4 mps 701 mmHg 90%
    01:00 +3°C° 0 mm 4 mps 701 mmHg 91%
    02:00 +1°C° 0 mm 4 mps 700 mmHg 91%
    03:00 +1°C° 0 mm 4 mps 700 mmHg 92%
    04:00 +1°C° 0 mm 4 mps 700 mmHg 92%
    05:00 +1°C° 0 mm 4 mps 700 mmHg 92%
    06:00 +1°C° 0 mm 3 mps 700 mmHg 93%
    07:00 +2°C° 0 mm 3 mps 700 mmHg 89%
    08:00 +3°C° 0 mm 4 mps 701 mmHg 86%
    09:00 +3°C° 0 mm 4 mps 701 mmHg 83%
    10:00 +5°C° 0 mm 5 mps 701 mmHg 74%
    11:00 +6°C° 0 mm 5 mps 701 mmHg 66%
    12:00 +7°C° 0 mm 5 mps 701 mmHg 58%
    13:00 +8°C° 0 mm 4 mps 701 mmHg 55%
    14:00 +8°C° 0 mm 4 mps 701 mmHg 52%
    15:00 +10°C° 0 mm 3 mps 700 mmHg 48%
    16:00 +9°C° 0 mm 3 mps 700 mmHg 52%
    17:00 +7°C° 0 mm 3 mps 700 mmHg 57%
    18:00 +5°C° 0 mm 3 mps 700 mmHg 61%
    19:00 +5°C° 0 mm 3 mps 701 mmHg 63%
    20:00 +5°C° 0 mm 2 mps 701 mmHg 65%
    21:00 +5°C° 0 mm 2 mps 701 mmHg 67%
    22:00 +4°C° 0 mm 2 mps 702 mmHg 66%
    23:00 +4°C° 0 mm 2 mps 702 mmHg 65%

    Tomorrow, 18 January, Friday

    Time Temperature Precipitation Wind Pressure Humidity
    00:00 +4°C° 0 mm 2 mps 702 mmHg 64%
    01:00 +3°C° 0 mm 2 mps 702 mmHg 66%
    02:00 +2°C° 0 mm 2 mps 701 mmHg 69%
    03:00 +2°C° 0 mm 2 mps 701 mmHg 71%
    04:00 +1°C° 0 mm 2 mps 701 mmHg 72%
    05:00 +1°C° 0 mm 2 mps 701 mmHg 73%
    06:00 +1°C° 0 mm 2 mps 701 mmHg 73%
    07:00 +2°C° 0 mm 2 mps 701 mmHg 69%
    08:00 +2°C° 0 mm 2 mps 702 mmHg 64%
    09:00 +3°C° 0 mm 2 mps 702 mmHg 59%
    10:00 +4°C° 0 mm 3 mps 702 mmHg 53%
    11:00 +5°C° 0 mm 3 mps 702 mmHg 47%
    12:00 +7°C° 0 mm 4 mps 702 mmHg 40%
    13:00 +7°C° 0 mm 5 mps 702 mmHg 39%
    14:00 +8°C° 0 mm 5 mps 702 mmHg 38%
    15:00 +8°C° 0 mm 5 mps 701 mmHg 36%
    16:00 +7°C° 0 mm 5 mps 701 mmHg 42%
    17:00 +5°C° 0 mm 4 mps 701 mmHg 47%
    18:00 +4°C° 0 mm 4 mps 701 mmHg 53%
    19:00 +4°C° 0 mm 4 mps 701 mmHg 57%
    20:00 +3°C° 0 mm 4 mps 701 mmHg 61%
    21:00 +2°C° 0 mm 3 mps 702 mmHg 65%
    22:00 +1°C° 0 mm 4 mps 702 mmHg 68%
    23:00 +1°C° 0 mm 4 mps 702 mmHg 70%

    Day after tomorrow, 19 January, Saturday

    Time Temperature Precipitation Wind Pressure Humidity
    00:00 +1°C° 0 mm 4 mps 701 mmHg 72%
    01:00 0°C° 0 mm 4 mps 701 mmHg 76%
    02:00 0°C° 0 mm 4 mps 701 mmHg 80%
    03:00 0°C° 0 mm 4 mps 701 mmHg 84%
    04:00 0°C° 0 mm 4 mps 701 mmHg 83%
    05:00 0°C° 0 mm 4 mps 701 mmHg 83%
    06:00 0°C° 0 mm 4 mps 701 mmHg 82%
    07:00 +1°C° 0 mm 5 mps 701 mmHg 76%
    08:00 +2°C° 0 mm 5 mps 701 mmHg 71%
    09:00 +3°C° 0 mm 6 mps 702 mmHg 65%
    10:00 +5°C° 0 mm 6 mps 701 mmHg 62%
    11:00 +6°C° 0 mm 7 mps 701 mmHg 58%
    12:00 +8°C° 0 mm 7 mps 701 mmHg 55%
    13:00 +7°C° 0.2 mm 8 mps 700 mmHg 60%
    14:00 +7°C° 0.2 mm 8 mps 700 mmHg 66%
    15:00 +6°C° 0.2 mm 8 mps 699 mmHg 71%
    16:00 +6°C° 0.2 mm 8 mps 699 mmHg 74%
    17:00 +6°C° 0.2 mm 7 mps 698 mmHg 77%
    18:00 +5°C° 0.2 mm 7 mps 698 mmHg 80%
    19:00 +6°C° 0.5 mm 7 mps 698 mmHg 81%
    20:00 +6°C° 0.5 mm 8 mps 698 mmHg 81%
    21:00 +6°C° 0.5 mm 8 mps 698 mmHg 81%
    22:00 +6°C° 0 mm 8 mps 697 mmHg 83%
    23:00 +6°C° 0 mm 8 mps 697 mmHg 86%

    20 January, Sunday

    Time Temperature Precipitation Wind Pressure Humidity
    00:00 +6°C° 0 mm 8 mps 697 mmHg 88%
    01:00 +6°C° 0 mm 7 mps 697 mmHg 88%
    02:00 +6°C° 0 mm 7 mps 696 mmHg 88%
    03:00 +6°C° 0 mm 7 mps 696 mmHg 88%
    04:00 +6°C° 0.1 mm 7 mps 696 mmHg 89%
    05:00 +7°C° 0.1 mm 6 mps 696 mmHg 91%
    06:00 +7°C° 0.1 mm 6 mps 697 mmHg 92%
    07:00 +7°C° 0.4 mm 6 mps 697 mmHg 92%
    08:00 +7°C° 0.4 mm 5 mps 698 mmHg 92%
    09:00 +7°C° 0.4 mm 5 mps 698 mmHg 91%
    10:00 +7°C° 0.3 mm 5 mps 699 mmHg 81%
    11:00 +7°C° 0.3 mm 5 mps 699 mmHg 71%
    12:00 +8°C° 0.3 mm 5 mps 699 mmHg 61%
    13:00 +8°C° 0.1 mm 5 mps 699 mmHg 58%
    14:00 +8°C° 0.1 mm 5 mps 699 mmHg 55%
    15:00 +8°C° 0.1 mm 5 mps 699 mmHg 51%
    16:00 +7°C° 0 mm 5 mps 700 mmHg 54%
    17:00 +6°C° 0 mm 5 mps 700 mmHg 57%
    18:00 +5°C° 0 mm 5 mps 701 mmHg 60%
    19:00 +3°C° 0 mm 5 mps 702 mmHg 63%
    20:00 +4°C° 0 mm 4 mps 702 mmHg 66%
    21:00 +3°C° 0 mm 4 mps 703 mmHg 69%
    22:00 +3°C° 0 mm 4 mps 703 mmHg 72%
    23:00 +1°C° 0 mm 4 mps 703 mmHg 75%

    21 January, Monday

    Time Temperature Precipitation Wind Pressure Humidity
    00:00 +1°C° 0 mm 4 mps 703 mmHg 79%
    01:00 0°C° 0 mm 4 mps 703 mmHg 80%
    02:00 0°C° 0 mm 4 mps 703 mmHg 81%
    03:00 0°C° 0 mm 5 mps 703 mmHg 83%
    04:00 0°C° 0 mm 5 mps 704 mmHg 84%
    05:00 0°C° 0 mm 5 mps 704 mmHg 86%
    06:00 -1°C° 0 mm 5 mps 704 mmHg 88%
    07:00 -1°C° 0 mm 6 mps 704 mmHg 83%
    08:00 +1°C° 0 mm 6 mps 705 mmHg 78%
    09:00 +2°C° 0 mm 6 mps 705 mmHg 73%
    10:00 +3°C° 0 mm 7 mps 705 mmHg 64%
    11:00 +5°C° 0 mm 7 mps 705 mmHg 55%
    12:00 +8°C° 0 mm 7 mps 705 mmHg 46%
    13:00 +8°C° 0 mm 7 mps 705 mmHg 45%
    14:00 +8°C° 0 mm 7 mps 705 mmHg 44%
    15:00 +7°C° 0 mm 8 mps 704 mmHg 42%
    16:00 +7°C° 0 mm 6 mps 704 mmHg 47%
    17:00 +6°C° 0 mm 5 mps 705 mmHg 52%
    18:00 +4°C° 0 mm 4 mps 705 mmHg 57%
    19:00 +4°C° 0 mm 4 mps 705 mmHg 61%
    20:00 +3°C° 0 mm 4 mps 705 mmHg 65%
    21:00 +2°C° 0 mm 3 mps 705 mmHg 69%
    22:00 +1°C° 0 mm 4 mps 705 mmHg 72%
    23:00 0°C° 0 mm 4 mps 705 mmHg 75%

    22 January, Tuesday

    Time Temperature Precipitation Wind Pressure Humidity
    00:00 0°C° 0 mm 5 mps 705 mmHg 78%
    01:00 0°C° 0 mm 5 mps 704 mmHg 80%
    02:00 -1°C° 0 mm 5 mps 704 mmHg 81%
    03:00 -1°C° 0 mm 5 mps 703 mmHg 83%
    04:00 -1°C° 0 mm 5 mps 703 mmHg 82%
    05:00 -1°C° 0 mm 5 mps 702 mmHg 80%
    06:00 -1°C° 0 mm 5 mps 701 mmHg 79%
    07:00 -1°C° 0 mm 7 mps 701 mmHg 74%
    08:00 +1°C° 0 mm 9 mps 701 mmHg 68%
    09:00 +2°C° 0 mm 10 mps 701 mmHg 63%
    10:00 +3°C° 0 mm 11 mps 700 mmHg 59%
    11:00 +4°C° 0 mm 12 mps 699 mmHg 56%
    12:00 +5°C° 0 mm 12 mps 698 mmHg 52%
    13:00 +4°C° 0.3 mm 12 mps 697 mmHg 58%
    14:00 +3°C° 0.3 mm 13 mps 696 mmHg 63%
    15:00 +1°C° 0.3 mm 13 mps 695 mmHg 69%
    16:00 +2°C° 0.3 mm 12 mps 695 mmHg 72%
    17:00 +2°C° 0.3 mm 11 mps 695 mmHg 76%
    18:00 +2°C° 0.3 mm 11 mps 695 mmHg 80%
    19:00 +1°C° 0.1 mm 10 mps 695 mmHg 77%
    20:00 0°C° 0.1 mm 9 mps 696 mmHg 74%
    21:00 -1°C° 0.1 mm 7 mps 696 mmHg 71%
    22:00 -1°C° 0 mm 7 mps 696 mmHg 72%
    23:00 -2°C° 0 mm 7 mps 696 mmHg 73%
    Show more